
Distance (Route):
Temperature : 0°C
Humidity : 0%
Pressure : 0hPa| Receiver | Frames | First received | Last received |
|---|---|---|---|
| POL1PZ | 130 | 2026-09-02 10:10:12 | 2026-09-02 10:59:09 |
| Receiver | Date | Latitude | Longitude | Direction | Speed | Altitude | Climb | Temperature | Humidity | Pressure | Voltage | Killtimer | Uptime | BKT | XDATA |
|---|---|---|---|---|---|---|---|---|---|---|---|---|---|---|---|
| POL1PZ | 2026-09-02 10:59:09 | 50.66453 | 19.13049 | 97° | 31km/h | 2838m | -10.2m/s | 0°C | 0% | 0hPa | 0V | 00:00:00 | 00:00:00 | 00:00:00 | |
| POL1PZ | 2026-09-02 10:58:48 | 50.66463 | 19.12794 | 92° | 31km/h | 3057m | -10.1m/s | 0°C | 0% | 0hPa | 0V | 00:00:00 | 00:00:00 | 00:00:00 | |
| POL1PZ | 2026-09-02 10:58:17 | 50.66463 | 19.12400 | 86° | 35km/h | 3377m | -10.5m/s | 0°C | 0% | 0hPa | 0V | 00:00:00 | 00:00:00 | 00:00:00 | |
| POL1PZ | 2026-09-02 10:57:55 | 50.66437 | 19.12108 | 80° | 35km/h | 3607m | -10.2m/s | 0°C | 0% | 0hPa | 0V | 00:00:00 | 00:00:00 | 00:00:00 | |
| POL1PZ | 2026-09-02 10:57:31 | 50.66405 | 19.11806 | 81° | 29km/h | 3865m | -10.7m/s | 0°C | 0% | 0hPa | 0V | 00:00:00 | 00:00:00 | 00:00:00 | |
| POL1PZ | 2026-09-02 10:57:10 | 50.66371 | 19.11551 | 79° | 33km/h | 4083m | -10.0m/s | 0°C | 0% | 0hPa | 0V | 00:00:00 | 00:00:00 | 00:00:00 | |
| POL1PZ | 2026-09-02 10:56:46 | 50.66354 | 19.11246 | 102° | 40km/h | 4330m | -10.1m/s | 0°C | 0% | 0hPa | 0V | 00:00:00 | 00:00:00 | 00:00:00 | |
| POL1PZ | 2026-09-02 10:56:20 | 50.66384 | 19.10777 | 95° | 47km/h | 4610m | -10.0m/s | 0°C | 0% | 0hPa | 0V | 00:00:00 | 00:00:00 | 00:00:00 | |
| POL1PZ | 2026-09-02 10:55:58 | 50.66388 | 19.10408 | 97° | 44km/h | 4841m | -10.9m/s | 0°C | 0% | 0hPa | 0V | 00:00:00 | 00:00:00 | 00:00:00 | |
| POL1PZ | 2026-09-02 10:55:37 | 50.66453 | 19.10038 | 111° | 51km/h | 5102m | -12.8m/s | 0°C | 0% | 0hPa | 0V | 00:00:00 | 00:00:00 | 00:00:00 | |
| POL1PZ | 2026-09-02 10:55:17 | 50.66532 | 19.09680 | 110° | 46km/h | 5354m | -12.4m/s | 0°C | 0% | 0hPa | 0V | 00:00:00 | 00:00:00 | 00:00:00 | |
| POL1PZ | 2026-09-02 10:54:54 | 50.66630 | 19.09329 | 116° | 40km/h | 5628m | -12.9m/s | 0°C | 0% | 0hPa | 0V | 00:00:00 | 00:00:00 | 00:00:00 | |
| POL1PZ | 2026-09-02 10:54:34 | 50.66706 | 19.09035 | 111° | 40km/h | 5891m | -13.5m/s | 0°C | 0% | 0hPa | 0V | 00:00:00 | 00:00:00 | 00:00:00 | |
| POL1PZ | 2026-09-02 10:54:13 | 50.66785 | 19.08736 | 107° | 42km/h | 6177m | -14.0m/s | 0°C | 0% | 0hPa | 0V | 00:00:00 | 00:00:00 | 00:00:00 | |
| POL1PZ | 2026-09-02 10:53:52 | 50.66842 | 19.08414 | 109° | 40km/h | 6475m | -14.5m/s | 0°C | 0% | 0hPa | 0V | 00:00:00 | 00:00:00 | 00:00:00 | |
| POL1PZ | 2026-09-02 10:53:31 | 50.66879 | 19.08110 | 96° | 42km/h | 6777m | -14.4m/s | 0°C | 0% | 0hPa | 0V | 00:00:00 | 00:00:00 | 00:00:00 | |
| POL1PZ | 2026-09-02 10:53:11 | 50.66894 | 19.07750 | 88° | 49km/h | 7073m | -15.6m/s | 0°C | 0% | 0hPa | 0V | 00:00:00 | 00:00:00 | 00:00:00 | |
| POL1PZ | 2026-09-02 10:52:47 | 50.66886 | 19.07282 | 87° | 46km/h | 7436m | -14.9m/s | 0°C | 0% | 0hPa | 0V | 00:00:00 | 00:00:00 | 00:00:00 | |
| POL1PZ | 2026-09-02 10:52:27 | 50.66868 | 19.06899 | 91° | 46km/h | 7745m | -15.4m/s | 0°C | 0% | 0hPa | 0V | 00:00:00 | 00:00:00 | 00:00:00 | |
| POL1PZ | 2026-09-02 10:52:07 | 50.66878 | 19.06547 | 92° | 42km/h | 8051m | -15.3m/s | 0°C | 0% | 0hPa | 0V | 00:00:00 | 00:00:00 | 00:00:00 | |
| POL1PZ | 2026-09-02 10:51:47 | 50.66879 | 19.06172 | 87° | 49km/h | 8361m | -16.0m/s | 0°C | 0% | 0hPa | 0V | 00:00:00 | 00:00:00 | 00:00:00 | |
| POL1PZ | 2026-09-02 10:51:26 | 50.66888 | 19.05779 | 95° | 46km/h | 8697m | -16.0m/s | 0°C | 0% | 0hPa | 0V | 00:00:00 | 00:00:00 | 00:00:00 | |
| POL1PZ | 2026-09-02 10:51:06 | 50.66910 | 19.05436 | 93° | 42km/h | 9025m | -16.5m/s | 0°C | 0% | 0hPa | 0V | 00:00:00 | 00:00:00 | 00:00:00 | |
| POL1PZ | 2026-09-02 10:50:45 | 50.66925 | 19.05091 | 97° | 42km/h | 9367m | -16.7m/s | 0°C | 0% | 0hPa | 0V | 00:00:00 | 00:00:00 | 00:00:00 | |
| POL1PZ | 2026-09-02 10:50:24 | 50.66941 | 19.04743 | 94° | 44km/h | 9711m | -16.3m/s | 0°C | 0% | 0hPa | 0V | 00:00:00 | 00:00:00 | 00:00:00 | |
| POL1PZ | 2026-09-02 10:50:03 | 50.66953 | 19.04392 | 88° | 40km/h | 10074m | -18.0m/s | 0°C | 0% | 0hPa | 0V | 00:00:00 | 00:00:00 | 00:00:00 | |
| POL1PZ | 2026-09-02 10:49:43 | 50.66930 | 19.04137 | 79° | 49km/h | 10093m | 4.0m/s | 0°C | 0% | 0hPa | 0V | 00:00:00 | 00:00:00 | 00:00:00 | |
| POL1PZ | 2026-09-02 10:49:23 | 50.66921 | 19.03857 | 75° | 46km/h | 10014m | 1.3m/s | 0°C | 0% | 0hPa | 0V | 00:00:00 | 00:00:00 | 00:00:00 | |
| POL1PZ | 2026-09-02 10:48:41 | 50.66925 | 19.03175 | 91° | 37km/h | 9851m | 2.8m/s | 0°C | 0% | 0hPa | 0V | 00:00:00 | 00:00:00 | 00:00:00 | |
| POL1PZ | 2026-09-02 10:48:00 | 50.66956 | 19.02461 | 97° | 44km/h | 9691m | 5.2m/s | 0°C | 0% | 0hPa | 0V | 00:00:00 | 00:00:00 | 00:00:00 | |
| POL1PZ | 2026-09-02 10:47:39 | 50.66974 | 19.02118 | 79° | 47km/h | 9613m | 4.1m/s | 0°C | 0% | 0hPa | 0V | 00:00:00 | 00:00:00 | 00:00:00 | |
| POL1PZ | 2026-09-02 10:47:19 | 50.66990 | 19.01790 | 102° | 47km/h | 9538m | 5.2m/s | 0°C | 0% | 0hPa | 0V | 00:00:00 | 00:00:00 | 00:00:00 | |
| POL1PZ | 2026-09-02 10:46:56 | 50.67012 | 19.01419 | 79° | 40km/h | 9449m | 2.8m/s | 0°C | 0% | 0hPa | 0V | 00:00:00 | 00:00:00 | 00:00:00 | |
| POL1PZ | 2026-09-02 10:46:36 | 50.67028 | 19.01088 | 74° | 33km/h | 9375m | 4.1m/s | 0°C | 0% | 0hPa | 0V | 00:00:00 | 00:00:00 | 00:00:00 | |
| POL1PZ | 2026-09-02 10:46:16 | 50.67036 | 19.00757 | 103° | 46km/h | 9305m | 1.1m/s | 0°C | 0% | 0hPa | 0V | 00:00:00 | 00:00:00 | 00:00:00 | |
| POL1PZ | 2026-09-02 10:45:56 | 50.67043 | 19.00432 | 91° | 37km/h | 9229m | 4.1m/s | 0°C | 0% | 0hPa | 0V | 00:00:00 | 00:00:00 | 00:00:00 | |
| POL1PZ | 2026-09-02 10:45:36 | 50.67058 | 19.00089 | 116° | 42km/h | 9156m | 1.8m/s | 0°C | 0% | 0hPa | 0V | 00:00:00 | 00:00:00 | 00:00:00 | |
| POL1PZ | 2026-09-02 10:45:15 | 50.67077 | 18.99763 | 91° | 44km/h | 9082m | 2.8m/s | 0°C | 0% | 0hPa | 0V | 00:00:00 | 00:00:00 | 00:00:00 | |
| POL1PZ | 2026-09-02 10:44:55 | 50.67092 | 18.99410 | 103° | 42km/h | 9003m | 2.0m/s | 0°C | 0% | 0hPa | 0V | 00:00:00 | 00:00:00 | 00:00:00 | |
| POL1PZ | 2026-09-02 10:44:34 | 50.67119 | 18.99076 | 96° | 60km/h | 8932m | 3.4m/s | 0°C | 0% | 0hPa | 0V | 00:00:00 | 00:00:00 | 00:00:00 | |
| POL1PZ | 2026-09-02 10:44:12 | 50.67143 | 18.98691 | 91° | 44km/h | 8852m | 4.8m/s | 0°C | 0% | 0hPa | 0V | 00:00:00 | 00:00:00 | 00:00:00 | |
| POL1PZ | 2026-09-02 10:43:51 | 50.67158 | 18.98319 | 78° | 46km/h | 8775m | 0.5m/s | 0°C | 0% | 0hPa | 0V | 00:00:00 | 00:00:00 | 00:00:00 | |
| POL1PZ | 2026-09-02 10:43:31 | 50.67175 | 18.97953 | 97° | 64km/h | 8704m | 4.7m/s | 0°C | 0% | 0hPa | 0V | 00:00:00 | 00:00:00 | 00:00:00 | |
| POL1PZ | 2026-09-02 10:43:10 | 50.67193 | 18.97566 | 88° | 57km/h | 8623m | 4.1m/s | 0°C | 0% | 0hPa | 0V | 00:00:00 | 00:00:00 | 00:00:00 | |
| POL1PZ | 2026-09-02 10:42:50 | 50.67205 | 18.97198 | 88° | 55km/h | 8544m | 1.1m/s | 0°C | 0% | 0hPa | 0V | 00:00:00 | 00:00:00 | 00:00:00 | |
| POL1PZ | 2026-09-02 10:42:30 | 50.67203 | 18.96838 | 70° | 40km/h | 8469m | 2.0m/s | 0°C | 0% | 0hPa | 0V | 00:00:00 | 00:00:00 | 00:00:00 | |
| POL1PZ | 2026-09-02 10:42:09 | 50.67188 | 18.96434 | 76° | 40km/h | 8393m | 2.6m/s | 0°C | 0% | 0hPa | 0V | 00:00:00 | 00:00:00 | 00:00:00 | |
| POL1PZ | 2026-09-02 10:41:46 | 50.67177 | 18.95997 | 93° | 55km/h | 8301m | 4.2m/s | 0°C | 0% | 0hPa | 0V | 00:00:00 | 00:00:00 | 00:00:00 | |
| POL1PZ | 2026-09-02 10:41:25 | 50.67173 | 18.95598 | 95° | 40km/h | 8219m | 3.3m/s | 0°C | 0% | 0hPa | 0V | 00:00:00 | 00:00:00 | 00:00:00 | |
| POL1PZ | 2026-09-02 10:41:05 | 50.67165 | 18.95223 | 91° | 51km/h | 8147m | 7.7m/s | 0°C | 0% | 0hPa | 0V | 00:00:00 | 00:00:00 | 00:00:00 | |
| POL1PZ | 2026-09-02 10:40:45 | 50.67160 | 18.94859 | 78° | 49km/h | 8073m | 3.2m/s | 0°C | 0% | 0hPa | 0V | 00:00:00 | 00:00:00 | 00:00:00 | |
| POL1PZ | 2026-09-02 10:40:24 | 50.67164 | 18.94493 | 101° | 33km/h | 7996m | 3.3m/s | 0°C | 0% | 0hPa | 0V | 00:00:00 | 00:00:00 | 00:00:00 | |
| POL1PZ | 2026-09-02 10:40:02 | 50.67170 | 18.94113 | 81° | 51km/h | 7913m | 2.5m/s | 0°C | 0% | 0hPa | 0V | 00:00:00 | 00:00:00 | 00:00:00 | |
| POL1PZ | 2026-09-02 10:39:41 | 50.67178 | 18.93751 | 90° | 37km/h | 7833m | 4.0m/s | 0°C | 0% | 0hPa | 0V | 00:00:00 | 00:00:00 | 00:00:00 | |
| POL1PZ | 2026-09-02 10:39:00 | 50.67166 | 18.92990 | 75° | 31km/h | 7681m | 1.8m/s | 0°C | 0% | 0hPa | 0V | 00:00:00 | 00:00:00 | 00:00:00 | |
| POL1PZ | 2026-09-02 10:38:38 | 50.67134 | 18.92569 | 70° | 55km/h | 7600m | 0.7m/s | 0°C | 0% | 0hPa | 0V | 00:00:00 | 00:00:00 | 00:00:00 | |
| POL1PZ | 2026-09-02 10:38:16 | 50.67110 | 18.92163 | 101° | 40km/h | 7521m | 2.7m/s | 0°C | 0% | 0hPa | 0V | 00:00:00 | 00:00:00 | 00:00:00 | |
| POL1PZ | 2026-09-02 10:37:55 | 50.67095 | 18.91779 | 83° | 42km/h | 7446m | 0.3m/s | 0°C | 0% | 0hPa | 0V | 00:00:00 | 00:00:00 | 00:00:00 | |
| POL1PZ | 2026-09-02 10:37:34 | 50.67112 | 18.91384 | 94° | 47km/h | 7368m | 5.1m/s | 0°C | 0% | 0hPa | 0V | 00:00:00 | 00:00:00 | 00:00:00 | |
| POL1PZ | 2026-09-02 10:37:13 | 50.67089 | 18.90949 | 74° | 57km/h | 7290m | 1.8m/s | 0°C | 0% | 0hPa | 0V | 00:00:00 | 00:00:00 | 00:00:00 | |
| POL1PZ | 2026-09-02 10:36:52 | 50.67065 | 18.90506 | 85° | 60km/h | 7219m | 5.3m/s | 0°C | 0% | 0hPa | 0V | 00:00:00 | 00:00:00 | 00:00:00 | |
| POL1PZ | 2026-09-02 10:36:32 | 50.67065 | 18.90087 | 95° | 49km/h | 7140m | 4.1m/s | 0°C | 0% | 0hPa | 0V | 00:00:00 | 00:00:00 | 00:00:00 | |
| POL1PZ | 2026-09-02 10:36:11 | 50.67082 | 18.89659 | 109° | 46km/h | 7069m | 2.1m/s | 0°C | 0% | 0hPa | 0V | 00:00:00 | 00:00:00 | 00:00:00 | |
| POL1PZ | 2026-09-02 10:35:50 | 50.67108 | 18.89258 | 88° | 53km/h | 6994m | 1.1m/s | 0°C | 0% | 0hPa | 0V | 00:00:00 | 00:00:00 | 00:00:00 | |
| POL1PZ | 2026-09-02 10:35:29 | 50.67146 | 18.88884 | 89° | 55km/h | 6915m | 3.4m/s | 0°C | 0% | 0hPa | 0V | 00:00:00 | 00:00:00 | 00:00:00 | |
| POL1PZ | 2026-09-02 10:35:08 | 50.67183 | 18.88491 | 81° | 37km/h | 6837m | 1.8m/s | 0°C | 0% | 0hPa | 0V | 00:00:00 | 00:00:00 | 00:00:00 | |
| POL1PZ | 2026-09-02 10:34:47 | 50.67221 | 18.88158 | 108° | 40km/h | 6760m | 2.8m/s | 0°C | 0% | 0hPa | 0V | 00:00:00 | 00:00:00 | 00:00:00 | |
| POL1PZ | 2026-09-02 10:34:27 | 50.67261 | 18.87847 | 91° | 51km/h | 6688m | 1.4m/s | 0°C | 0% | 0hPa | 0V | 00:00:00 | 00:00:00 | 00:00:00 | |
| POL1PZ | 2026-09-02 10:34:04 | 50.67316 | 18.87506 | 107° | 29km/h | 6600m | 3.6m/s | 0°C | 0% | 0hPa | 0V | 00:00:00 | 00:00:00 | 00:00:00 | |
| POL1PZ | 2026-09-02 10:33:43 | 50.67373 | 18.87211 | 121° | 44km/h | 6524m | 6.7m/s | 0°C | 0% | 0hPa | 0V | 00:00:00 | 00:00:00 | 00:00:00 | |
| POL1PZ | 2026-09-02 10:33:22 | 50.67438 | 18.86885 | 113° | 33km/h | 6443m | 1.4m/s | 0°C | 0% | 0hPa | 0V | 00:00:00 | 00:00:00 | 00:00:00 | |
| POL1PZ | 2026-09-02 10:32:59 | 50.67507 | 18.86511 | 104° | 47km/h | 6354m | 2.5m/s | 0°C | 0% | 0hPa | 0V | 00:00:00 | 00:00:00 | 00:00:00 | |
| POL1PZ | 2026-09-02 10:32:38 | 50.67566 | 18.86180 | 101° | 38km/h | 6272m | 1.9m/s | 0°C | 0% | 0hPa | 0V | 00:00:00 | 00:00:00 | 00:00:00 | |
| POL1PZ | 2026-09-02 10:32:17 | 50.67639 | 18.85851 | 122° | 33km/h | 6196m | 1.2m/s | 0°C | 0% | 0hPa | 0V | 00:00:00 | 00:00:00 | 00:00:00 | |
| POL1PZ | 2026-09-02 10:31:54 | 50.67727 | 18.85489 | 124° | 38km/h | 6100m | 2.5m/s | 0°C | 0% | 0hPa | 0V | 00:00:00 | 00:00:00 | 00:00:00 | |
| POL1PZ | 2026-09-02 10:31:33 | 50.67815 | 18.85195 | 129° | 37km/h | 6023m | 1.5m/s | 0°C | 0% | 0hPa | 0V | 00:00:00 | 00:00:00 | 00:00:00 | |
| POL1PZ | 2026-09-02 10:31:12 | 50.67899 | 18.84894 | 112° | 37km/h | 5941m | 5.4m/s | 0°C | 0% | 0hPa | 0V | 00:00:00 | 00:00:00 | 00:00:00 | |
| POL1PZ | 2026-09-02 10:30:51 | 50.67981 | 18.84594 | 113° | 40km/h | 5860m | 4.9m/s | 0°C | 0% | 0hPa | 0V | 00:00:00 | 00:00:00 | 00:00:00 | |
| POL1PZ | 2026-09-02 10:30:30 | 50.68067 | 18.84281 | 120° | 31km/h | 5783m | 1.5m/s | 0°C | 0% | 0hPa | 0V | 00:00:00 | 00:00:00 | 00:00:00 | |
| POL1PZ | 2026-09-02 10:30:08 | 50.68158 | 18.83947 | 98° | 46km/h | 5700m | 0.7m/s | 0°C | 0% | 0hPa | 0V | 00:00:00 | 00:00:00 | 00:00:00 | |
| POL1PZ | 2026-09-02 10:29:48 | 50.68242 | 18.83645 | 131° | 47km/h | 5624m | 1.8m/s | 0°C | 0% | 0hPa | 0V | 00:00:00 | 00:00:00 | 00:00:00 | |
| POL1PZ | 2026-09-02 10:29:28 | 50.68321 | 18.83334 | 123° | 57km/h | 5554m | 2.1m/s | 0°C | 0% | 0hPa | 0V | 00:00:00 | 00:00:00 | 00:00:00 | |
| POL1PZ | 2026-09-02 10:29:05 | 50.68427 | 18.82960 | 123° | 55km/h | 5464m | 1.3m/s | 0°C | 0% | 0hPa | 0V | 00:00:00 | 00:00:00 | 00:00:00 | |
| POL1PZ | 2026-09-02 10:28:44 | 50.68533 | 18.82614 | 118° | 53km/h | 5385m | 0.8m/s | 0°C | 0% | 0hPa | 0V | 00:00:00 | 00:00:00 | 00:00:00 | |
| POL1PZ | 2026-09-02 10:28:23 | 50.68625 | 18.82275 | 118° | 53km/h | 5306m | 1.8m/s | 0°C | 0% | 0hPa | 0V | 00:00:00 | 00:00:00 | 00:00:00 | |
| POL1PZ | 2026-09-02 10:28:02 | 50.68709 | 18.81945 | 109° | 60km/h | 5229m | 1.8m/s | 0°C | 0% | 0hPa | 0V | 00:00:00 | 00:00:00 | 00:00:00 | |
| POL1PZ | 2026-09-02 10:27:41 | 50.68784 | 18.81609 | 102° | 49km/h | 5150m | 0.4m/s | 0°C | 0% | 0hPa | 0V | 00:00:00 | 00:00:00 | 00:00:00 | |
| POL1PZ | 2026-09-02 10:27:19 | 50.68870 | 18.81260 | 110° | 55km/h | 5069m | 3.7m/s | 0°C | 0% | 0hPa | 0V | 00:00:00 | 00:00:00 | 00:00:00 | |
| POL1PZ | 2026-09-02 10:26:38 | 50.68993 | 18.80579 | 94° | 55km/h | 4911m | 0.7m/s | 0°C | 0% | 0hPa | 0V | 00:00:00 | 00:00:00 | 00:00:00 | |
| POL1PZ | 2026-09-02 10:26:17 | 50.69042 | 18.80246 | 90° | 38km/h | 4831m | 1.4m/s | 0°C | 0% | 0hPa | 0V | 00:00:00 | 00:00:00 | 00:00:00 | |
| POL1PZ | 2026-09-02 10:25:56 | 50.69060 | 18.79934 | 117° | 31km/h | 4750m | 2.6m/s | 0°C | 0% | 0hPa | 0V | 00:00:00 | 00:00:00 | 00:00:00 | |
| POL1PZ | 2026-09-02 10:25:35 | 50.69047 | 18.79637 | 65° | 44km/h | 4674m | 2.7m/s | 0°C | 0% | 0hPa | 0V | 00:00:00 | 00:00:00 | 00:00:00 | |
| POL1PZ | 2026-09-02 10:25:13 | 50.69031 | 18.79297 | 81° | 38km/h | 4592m | 7.0m/s | 0°C | 0% | 0hPa | 0V | 00:00:00 | 00:00:00 | 00:00:00 | |
| POL1PZ | 2026-09-02 10:24:52 | 50.69043 | 18.78944 | 92° | 35km/h | 4513m | 3.3m/s | 0°C | 0% | 0hPa | 0V | 00:00:00 | 00:00:00 | 00:00:00 | |
| POL1PZ | 2026-09-02 10:24:08 | 50.69079 | 18.78203 | 95° | 33km/h | 4361m | 5.9m/s | 0°C | 0% | 0hPa | 0V | 00:00:00 | 00:00:00 | 00:00:00 | |
| POL1PZ | 2026-09-02 10:23:48 | 50.69080 | 18.77937 | 78° | 44km/h | 4277m | 1.5m/s | 0°C | 0% | 0hPa | 0V | 00:00:00 | 00:00:00 | 00:00:00 | |
| POL1PZ | 2026-09-02 10:23:25 | 50.69065 | 18.77651 | 77° | 47km/h | 4179m | 3.5m/s | 0°C | 0% | 0hPa | 0V | 00:00:00 | 00:00:00 | 00:00:00 | |
| POL1PZ | 2026-09-02 10:23:04 | 50.69045 | 18.77388 | 94° | 29km/h | 4079m | 3.8m/s | 0°C | 0% | 0hPa | 0V | 00:00:00 | 00:00:00 | 00:00:00 | |
| POL1PZ | 2026-09-02 10:22:38 | 50.69028 | 18.77069 | 55° | 33km/h | 3987m | 1.6m/s | 0°C | 0% | 0hPa | 0V | 00:00:00 | 00:00:00 | 00:00:00 | |
| POL1PZ | 2026-09-02 10:22:16 | 50.69010 | 18.76793 | 85° | 51km/h | 3908m | 3.3m/s | 0°C | 0% | 0hPa | 0V | 00:00:00 | 00:00:00 | 00:00:00 | |
| POL1PZ | 2026-09-02 10:21:55 | 50.68988 | 18.76523 | 90° | 46km/h | 3830m | 1.3m/s | 0°C | 0% | 0hPa | 0V | 00:00:00 | 00:00:00 | 00:00:00 | |
| POL1PZ | 2026-09-02 10:21:35 | 50.68956 | 18.76286 | 72° | 37km/h | 3750m | 1.4m/s | 0°C | 0% | 0hPa | 0V | 00:00:00 | 00:00:00 | 00:00:00 | |
| POL1PZ | 2026-09-02 10:21:11 | 50.68926 | 18.75994 | 92° | 46km/h | 3662m | 2.1m/s | 0°C | 0% | 0hPa | 0V | 00:00:00 | 00:00:00 | 00:00:00 | |
| POL1PZ | 2026-09-02 10:20:47 | 50.68906 | 18.75695 | 116° | 33km/h | 3576m | 2.3m/s | 0°C | 0% | 0hPa | 0V | 00:00:00 | 00:00:00 | 00:00:00 | |
| POL1PZ | 2026-09-02 10:20:23 | 50.68905 | 18.75392 | 71° | 35km/h | 3490m | 3.0m/s | 0°C | 0% | 0hPa | 0V | 00:00:00 | 00:00:00 | 00:00:00 | |
| POL1PZ | 2026-09-02 10:20:03 | 50.68914 | 18.75129 | 95° | 46km/h | 3416m | 2.0m/s | 0°C | 0% | 0hPa | 0V | 00:00:00 | 00:00:00 | 00:00:00 | |
| POL1PZ | 2026-09-02 10:19:42 | 50.68930 | 18.74851 | 104° | 35km/h | 3345m | 4.2m/s | 0°C | 0% | 0hPa | 0V | 00:00:00 | 00:00:00 | 00:00:00 | |
| POL1PZ | 2026-09-02 10:19:22 | 50.68941 | 18.74585 | 102° | 49km/h | 3281m | 2.6m/s | 0°C | 0% | 0hPa | 0V | 00:00:00 | 00:00:00 | 00:00:00 | |
| POL1PZ | 2026-09-02 10:19:01 | 50.68958 | 18.74304 | 82° | 33km/h | 3207m | 1.3m/s | 0°C | 0% | 0hPa | 0V | 00:00:00 | 00:00:00 | 00:00:00 | |
| POL1PZ | 2026-09-02 10:18:40 | 50.68977 | 18.74033 | 100° | 38km/h | 3133m | 5.0m/s | 0°C | 0% | 0hPa | 0V | 00:00:00 | 00:00:00 | 00:00:00 | |
| POL1PZ | 2026-09-02 10:17:55 | 50.69021 | 18.73498 | 74° | 29km/h | 2983m | 0.7m/s | 0°C | 0% | 0hPa | 0V | 00:00:00 | 00:00:00 | 00:00:00 | |
| POL1PZ | 2026-09-02 10:17:35 | 50.69042 | 18.73266 | 73° | 29km/h | 2918m | 4.5m/s | 0°C | 0% | 0hPa | 0V | 00:00:00 | 00:00:00 | 00:00:00 | |
| POL1PZ | 2026-09-02 10:17:15 | 50.69057 | 18.73040 | 71° | 26km/h | 2848m | 3.1m/s | 0°C | 0% | 0hPa | 0V | 00:00:00 | 00:00:00 | 00:00:00 | |
| POL1PZ | 2026-09-02 10:16:54 | 50.69073 | 18.72806 | 104° | 24km/h | 2775m | 2.4m/s | 0°C | 0% | 0hPa | 0V | 00:00:00 | 00:00:00 | 00:00:00 | |
| POL1PZ | 2026-09-02 10:16:13 | 50.69081 | 18.72358 | 84° | 37km/h | 2640m | 1.4m/s | 0°C | 0% | 0hPa | 0V | 00:00:00 | 00:00:00 | 00:00:00 | |
| POL1PZ | 2026-09-02 10:15:48 | 50.69083 | 18.72098 | 84° | 26km/h | 2553m | 3.8m/s | 0°C | 0% | 0hPa | 0V | 00:00:00 | 00:00:00 | 00:00:00 | |
| POL1PZ | 2026-09-02 10:15:28 | 50.69099 | 18.71880 | 90° | 40km/h | 2490m | 1.2m/s | 0°C | 0% | 0hPa | 0V | 00:00:00 | 00:00:00 | 00:00:00 | |
| POL1PZ | 2026-09-02 10:15:05 | 50.69117 | 18.71612 | 85° | 22km/h | 2409m | 1.6m/s | 0°C | 0% | 0hPa | 0V | 00:00:00 | 00:00:00 | 00:00:00 | |
| POL1PZ | 2026-09-02 10:14:44 | 50.69133 | 18.71335 | 96° | 37km/h | 2336m | 3.9m/s | 0°C | 0% | 0hPa | 0V | 00:00:00 | 00:00:00 | 00:00:00 | |
| POL1PZ | 2026-09-02 10:14:23 | 50.69146 | 18.71057 | 105° | 35km/h | 2268m | 1.5m/s | 0°C | 0% | 0hPa | 0V | 00:00:00 | 00:00:00 | 00:00:00 | |
| POL1PZ | 2026-09-02 10:13:40 | 50.69156 | 18.70441 | 99° | 38km/h | 2124m | 1.0m/s | 0°C | 0% | 0hPa | 0V | 00:00:00 | 00:00:00 | 00:00:00 | |
| POL1PZ | 2026-09-02 10:13:19 | 50.69143 | 18.70132 | 67° | 44km/h | 2057m | 2.0m/s | 0°C | 0% | 0hPa | 0V | 00:00:00 | 00:00:00 | 00:00:00 | |
| POL1PZ | 2026-09-02 10:12:58 | 50.69130 | 18.69806 | 79° | 49km/h | 1980m | 2.5m/s | 0°C | 0% | 0hPa | 0V | 00:00:00 | 00:00:00 | 00:00:00 | |
| POL1PZ | 2026-09-02 10:12:37 | 50.69114 | 18.69473 | 76° | 42km/h | 1907m | 2.2m/s | 0°C | 0% | 0hPa | 0V | 00:00:00 | 00:00:00 | 00:00:00 | |
| POL1PZ | 2026-09-02 10:12:16 | 50.69101 | 18.69149 | 56° | 31km/h | 1840m | 2.4m/s | 0°C | 0% | 0hPa | 0V | 00:00:00 | 00:00:00 | 00:00:00 | |
| POL1PZ | 2026-09-02 10:11:54 | 50.69070 | 18.68836 | 79° | 38km/h | 1752m | 4.9m/s | 0°C | 0% | 0hPa | 0V | 00:00:00 | 00:00:00 | 00:00:00 | |
| POL1PZ | 2026-09-02 10:11:34 | 50.69020 | 18.68569 | 67° | 29km/h | 1676m | 4.7m/s | 0°C | 0% | 0hPa | 0V | 00:00:00 | 00:00:00 | 00:00:00 | |
| POL1PZ | 2026-09-02 10:11:14 | 50.68955 | 18.68322 | 45° | 40km/h | 1608m | 1.7m/s | 0°C | 0% | 0hPa | 0V | 00:00:00 | 00:00:00 | 00:00:00 | |
| POL1PZ | 2026-09-02 10:10:43 | 50.68834 | 18.67984 | 75° | 31km/h | 1501m | 1.4m/s | 0°C | 0% | 0hPa | 0V | 00:00:00 | 00:00:00 | 00:00:00 | |
| POL1PZ | 2026-09-02 10:10:12 | 50.68689 | 18.67700 | 51° | 20km/h | 1387m | 3.7m/s | 0°C | 0% | 0hPa | 0V | 00:00:00 | 00:00:00 | 00:00:00 |